owner,sensor,date,latitude,longitude,vertical_datum,wind_speed,wind_to_direction,wind_speed_of_gust,qcFlag 
SCCF RECON,ioos:station:SCCF:16:1,2019-03-01T19:15:00Z,26.4345,-81.9647,10.0,4.1,211.1,-9999.0,'1111122,1111122,1111122' 
SCCF RECON,ioos:station:SCCF:16:1,2019-03-01T20:15:00Z,26.4345,-81.9647,10.0,5.1,215.2,-9999.0,'1111122,1111122,1111122' 
SCCF RECON,ioos:station:SCCF:16:1,2019-03-01T21:15:00Z,26.4345,-81.9647,10.0,4.9,216.4,-9999.0,'1111122,1111122,1111122' 
SCCF RECON,ioos:station:SCCF:16:1,2019-03-01T22:15:00Z,26.4345,-81.9647,10.0,3.5,192.3,-9999.0,'1111122,1111122,1111122' 
SCCF RECON,ioos:station:SCCF:16:1,2019-03-02T05:15:00Z,26.4345,-81.9647,10.0,3.2,354.0,-9999.0,'1111122,1111122,1111122' 
SCCF RECON,ioos:station:SCCF:16:1,2019-03-02T06:15:00Z,26.4345,-81.9647,10.0,1.6,28.2,-9999.0,'1111122,1111122,1111122' 
SCCF RECON,ioos:station:SCCF:16:1,2019-03-02T07:15:00Z,26.4345,-81.9647,10.0,1.3,18.6,-9999.0,'1111122,1111122,1111122' 
SCCF RECON,ioos:station:SCCF:16:1,2019-03-02T08:15:00Z,26.4345,-81.9647,10.0,0.1,106.9,-9999.0,'1111122,1111122,1111122' 
SCCF RECON,ioos:station:SCCF:16:1,2019-03-02T09:15:00Z,26.4345,-81.9647,10.0,1.0,115.8,-9999.0,'1111122,1111122,1111122' 
SCCF RECON,ioos:station:SCCF:16:1,2019-03-02T10:15:00Z,26.4345,-81.9647,10.0,1.7,108.4,-9999.0,'1111122,1111122,1111122' 
SCCF RECON,ioos:station:SCCF:16:1,2019-03-02T11:15:00Z,26.4345,-81.9647,10.0,1.2,111.1,-9999.0,'1111122,1111122,1111122' 
SCCF RECON,ioos:station:SCCF:16:1,2019-03-02T12:15:00Z,26.4345,-81.9647,10.0,3.4,124.5,-9999.0,'1111122,1111122,1111122' 
SCCF RECON,ioos:station:SCCF:16:1,2019-03-02T13:15:00Z,26.4345,-81.9647,10.0,2.8,136.0,-9999.0,'1111122,1111122,1111122' 
SCCF RECON,ioos:station:SCCF:16:1,2019-03-02T14:15:00Z,26.4345,-81.9647,10.0,3.4,133.2,-9999.0,'1111122,1111122,1111122' 
SCCF RECON,ioos:station:SCCF:16:1,2019-03-02T15:15:00Z,26.4345,-81.9647,10.0,3.7,135.6,-9999.0,'1111122,1111122,1111122' 
SCCF RECON,ioos:station:SCCF:16:1,2019-03-02T16:15:00Z,26.4345,-81.9647,10.0,2.8,168.0,-9999.0,'1111122,1111122,1111122' 
SCCF RECON,ioos:station:SCCF:16:1,2019-03-02T17:15:00Z,26.4345,-81.9647,10.0,2.3,202.4,-9999.0,'1111122,1111122,1111122' 
SCCF RECON,ioos:station:SCCF:16:1,2019-03-02T18:15:00Z,26.4345,-81.9647,10.0,3.1,242.5,-9999.0,'1111122,1111122,1111122' 
SCCF RECON,ioos:station:SCCF:16:1,2019-03-02T19:15:00Z,26.4345,-81.9647,10.0,5.1,243.2,-9999.0,'1111122,1111122,1111122' 
SCCF RECON,ioos:station:SCCF:16:1,2019-03-02T20:15:00Z,26.4345,-81.9647,10.0,5.1,235.4,-9999.0,'1111122,1111122,1111122' 
SCCF RECON,ioos:station:SCCF:16:1,2019-03-02T21:15:00Z,26.4345,-81.9647,10.0,5.7,246.1,-9999.0,'1111122,1111122,1111122' 
SCCF RECON,ioos:station:SCCF:16:1,2019-03-02T22:15:00Z,26.4345,-81.9647,10.0,3.9,236.5,-9999.0,'1111122,1111122,1111122' 
SCCF RECON,ioos:station:SCCF:16:1,2019-03-03T05:15:00Z,26.4345,-81.9647,10.0,2.9,352.1,-9999.0,'1111122,1111122,1111122' 
SCCF RECON,ioos:station:SCCF:16:1,2019-03-03T06:15:00Z,26.4345,-81.9647,10.0,0.5,92.0,-9999.0,'1111122,1111122,1111122' 
SCCF RECON,ioos:station:SCCF:16:1,2019-03-03T07:15:00Z,26.4345,-81.9647,10.0,2.0,54.0,-9999.0,'1111122,1111122,1111122' 
SCCF RECON,ioos:station:SCCF:16:1,2019-03-03T08:15:00Z,26.4345,-81.9647,10.0,2.1,353.1,-9999.0,'1111122,1111122,1111122' 
SCCF RECON,ioos:station:SCCF:16:1,2019-03-03T09:15:00Z,26.4345,-81.9647,10.0,0.2,305.4,-9999.0,'1111122,1111122,1111122' 
SCCF RECON,ioos:station:SCCF:16:1,2019-03-03T10:15:00Z,26.4345,-81.9647,10.0,1.9,119.4,-9999.0,'1111122,1111122,1111122' 
SCCF RECON,ioos:station:SCCF:16:1,2019-03-03T11:15:00Z,26.4345,-81.9647,10.0,0.9,125.9,-9999.0,'1111122,1111122,1111122' 
SCCF RECON,ioos:station:SCCF:16:1,2019-03-03T12:15:00Z,26.4345,-81.9647,10.0,1.9,51.6,-9999.0,'1111122,1111122,1111122' 
SCCF RECON,ioos:station:SCCF:16:1,2019-03-03T13:15:00Z,26.4345,-81.9647,10.0,1.4,113.5,-9999.0,'1111122,1111122,1111122' 
SCCF RECON,ioos:station:SCCF:16:1,2019-03-03T14:15:00Z,26.4345,-81.9647,10.0,1.1,135.7,-9999.0,'1111122,1111122,1111122' 
SCCF RECON,ioos:station:SCCF:16:1,2019-03-03T15:15:00Z,26.4345,-81.9647,10.0,0.8,243.3,-9999.0,'1111122,1111122,1111122' 
SCCF RECON,ioos:station:SCCF:16:1,2019-03-03T16:15:00Z,26.4345,-81.9647,10.0,2.0,205.5,-9999.0,'1111122,1111122,1111122' 
SCCF RECON,ioos:station:SCCF:16:1,2019-03-03T17:15:00Z,26.4345,-81.9647,10.0,2.7,209.1,-9999.0,'1111122,1111122,1111122' 
SCCF RECON,ioos:station:SCCF:16:1,2019-03-03T18:15:00Z,26.4345,-81.9647,10.0,2.6,245.8,-9999.0,'1111122,1111122,1111122' 
SCCF RECON,ioos:station:SCCF:16:1,2019-03-03T19:15:00Z,26.4345,-81.9647,10.0,3.9,219.0,-9999.0,'1111122,1111122,1111122' 
SCCF RECON,ioos:station:SCCF:16:1,2019-03-03T20:15:00Z,26.4345,-81.9647,10.0,4.4,212.3,-9999.0,'1111122,1111122,1111122' 
SCCF RECON,ioos:station:SCCF:16:1,2019-03-03T21:15:00Z,26.4345,-81.9647,10.0,4.8,216.4,-9999.0,'1111122,1111122,1111122' 
SCCF RECON,ioos:station:SCCF:16:1,2019-03-03T22:15:00Z,26.4345,-81.9647,10.0,6.4,220.1,-9999.0,'1111122,1111122,1111122' 
SCCF RECON,ioos:station:SCCF:16:1,2019-03-04T05:15:00Z,26.4345,-81.9647,10.0,3.2,209.2,-9999.0,'1111122,1111122,1111122' 
SCCF RECON,ioos:station:SCCF:16:1,2019-03-04T06:15:00Z,26.4345,-81.9647,10.0,4.4,195.7,-9999.0,'1111122,1111122,1111122' 
SCCF RECON,ioos:station:SCCF:16:1,2019-03-04T07:15:00Z,26.4345,-81.9647,10.0,5.4,205.4,-9999.0,'1111122,1111122,1111122' 
SCCF RECON,ioos:station:SCCF:16:1,2019-03-04T08:15:00Z,26.4345,-81.9647,10.0,6.2,202.5,-9999.0,'1111122,1111122,1111122' 
SCCF RECON,ioos:station:SCCF:16:1,2019-03-04T09:15:00Z,26.4345,-81.9647,10.0,5.4,195.0,-9999.0,'1111122,1111122,1111122' 
SCCF RECON,ioos:station:SCCF:16:1,2019-03-04T10:15:00Z,26.4345,-81.9647,10.0,5.2,199.5,-9999.0,'1111122,1111122,1111122' 
SCCF RECON,ioos:station:SCCF:16:1,2019-03-04T11:15:00Z,26.4345,-81.9647,10.0,5.2,197.0,-9999.0,'1111122,1111122,1111122' 
SCCF RECON,ioos:station:SCCF:16:1,2019-03-04T12:15:00Z,26.4345,-81.9647,10.0,5.0,222.4,-9999.0,'1111122,1111122,1111122' 
SCCF RECON,ioos:station:SCCF:16:1,2019-03-04T13:15:00Z,26.4345,-81.9647,10.0,6.1,207.6,-9999.0,'1111122,1111122,1111122' 
SCCF RECON,ioos:station:SCCF:16:1,2019-03-04T14:15:00Z,26.4345,-81.9647,10.0,5.6,219.2,-9999.0,'1111122,1111122,1111122' 
SCCF RECON,ioos:station:SCCF:16:1,2019-03-04T15:15:00Z,26.4345,-81.9647,10.0,6.4,230.4,-9999.0,'1111122,1111122,1111122' 
SCCF RECON,ioos:station:SCCF:16:1,2019-03-04T16:15:00Z,26.4345,-81.9647,10.0,6.9,240.8,-9999.0,'1111122,1111122,1111122' 
SCCF RECON,ioos:station:SCCF:16:1,2019-03-04T17:15:00Z,26.4345,-81.9647,10.0,6.2,225.1,-9999.0,'1111122,1111122,1111122' 
SCCF RECON,ioos:station:SCCF:16:1,2019-03-04T18:15:00Z,26.4345,-81.9647,10.0,5.7,226.2,-9999.0,'1111122,1111122,1111122' 
SCCF RECON,ioos:station:SCCF:16:1,2019-03-04T19:15:00Z,26.4345,-81.9647,10.0,4.8,238.8,-9999.0,'1111122,1111122,1111122' 
SCCF RECON,ioos:station:SCCF:16:1,2019-03-04T20:15:00Z,26.4345,-81.9647,10.0,4.9,230.2,-9999.0,'1111122,1111122,1111122' 
SCCF RECON,ioos:station:SCCF:16:1,2019-03-04T21:15:00Z,26.4345,-81.9647,10.0,3.6,247.1,-9999.0,'1111122,1111122,1111122' 
SCCF RECON,ioos:station:SCCF:16:1,2019-03-04T22:15:00Z,26.4345,-81.9647,10.0,4.5,230.7,-9999.0,'1111122,1111122,1111122' 
SCCF RECON,ioos:station:SCCF:16:1,2019-03-05T05:15:00Z,26.4345,-81.9647,10.0,4.1,345.3,-9999.0,'1111122,1111122,1111122' 
SCCF RECON,ioos:station:SCCF:16:1,2019-03-05T06:15:00Z,26.4345,-81.9647,10.0,3.4,348.8,-9999.0,'1111122,1111122,1111122' 
SCCF RECON,ioos:station:SCCF:16:1,2019-03-05T07:15:00Z,26.4345,-81.9647,10.0,2.8,317.5,-9999.0,'1111122,1111122,1111122' 
SCCF RECON,ioos:station:SCCF:16:1,2019-03-05T08:15:00Z,26.4345,-81.9647,10.0,3.9,289.1,-9999.0,'1111122,1111122,1111122' 
SCCF RECON,ioos:station:SCCF:16:1,2019-03-05T09:15:00Z,26.4345,-81.9647,10.0,4.1,253.8,-9999.0,'1111122,1111122,1111122' 
SCCF RECON,ioos:station:SCCF:16:1,2019-03-05T10:15:00Z,26.4345,-81.9647,10.0,6.3,307.0,-9999.0,'1111122,1111122,1111122' 
SCCF RECON,ioos:station:SCCF:16:1,2019-03-05T11:15:00Z,26.4345,-81.9647,10.0,3.0,29.0,-9999.0,'1111122,1111122,1111122' 
SCCF RECON,ioos:station:SCCF:16:1,2019-03-05T12:15:00Z,26.4345,-81.9647,10.0,1.9,317.9,-9999.0,'1111122,1111122,1111122' 
SCCF RECON,ioos:station:SCCF:16:1,2019-03-05T13:15:00Z,26.4345,-81.9647,10.0,2.2,183.9,-9999.0,'1111122,1111122,1111122' 
SCCF RECON,ioos:station:SCCF:16:1,2019-03-05T14:15:00Z,26.4345,-81.9647,10.0,1.2,256.8,-9999.0,'1111122,1111122,1111122' 
SCCF RECON,ioos:station:SCCF:16:1,2019-03-05T15:15:00Z,26.4345,-81.9647,10.0,6.4,291.8,-9999.0,'1111122,1111122,1111122' 
SCCF RECON,ioos:station:SCCF:16:1,2019-03-05T16:15:00Z,26.4345,-81.9647,10.0,7.1,319.6,-9999.0,'1111122,1111122,1111122' 
SCCF RECON,ioos:station:SCCF:16:1,2019-03-05T17:15:00Z,26.4345,-81.9647,10.0,7.4,322.8,-9999.0,'1111122,1111122,1111122' 
SCCF RECON,ioos:station:SCCF:16:1,2019-03-05T18:15:00Z,26.4345,-81.9647,10.0,10.0,346.6,-9999.0,'1111122,1111122,1111122' 
SCCF RECON,ioos:station:SCCF:16:1,2019-03-05T19:15:00Z,26.4345,-81.9647,10.0,8.6,335.9,-9999.0,'1111122,1111122,1111122' 
SCCF RECON,ioos:station:SCCF:16:1,2019-03-05T20:15:00Z,26.4345,-81.9647,10.0,5.5,334.2,-9999.0,'1111122,1111122,1111122' 
SCCF RECON,ioos:station:SCCF:16:1,2019-03-05T22:15:00Z,26.4345,-81.9647,10.0,10.1,307.3,-9999.0,'1111122,1111122,1111122' 
SCCF RECON,ioos:station:SCCF:16:1,2019-03-06T05:15:00Z,26.4345,-81.9647,10.0,8.1,2.6,-9999.0,'1111122,1111122,1111122' 
SCCF RECON,ioos:station:SCCF:16:1,2019-03-06T06:15:00Z,26.4345,-81.9647,10.0,8.6,1.1,-9999.0,'1111122,1111122,1111122' 
SCCF RECON,ioos:station:SCCF:16:1,2019-03-06T07:15:00Z,26.4345,-81.9647,10.0,8.3,354.9,-9999.0,'1111122,1111122,1111122' 
SCCF RECON,ioos:station:SCCF:16:1,2019-03-06T08:15:00Z,26.4345,-81.9647,10.0,7.0,5.0,-9999.0,'1111122,1111122,1111122' 
SCCF RECON,ioos:station:SCCF:16:1,2019-03-06T09:15:00Z,26.4345,-81.9647,10.0,7.7,10.3,-9999.0,'1111122,1111122,1111122' 
SCCF RECON,ioos:station:SCCF:16:1,2019-03-06T10:15:00Z,26.4345,-81.9647,10.0,6.9,3.3,-9999.0,'1111122,1111122,1111122' 
SCCF RECON,ioos:station:SCCF:16:1,2019-03-06T11:15:00Z,26.4345,-81.9647,10.0,9.7,9.0,-9999.0,'1111122,1111122,1111122' 
SCCF RECON,ioos:station:SCCF:16:1,2019-03-06T12:15:00Z,26.4345,-81.9647,10.0,8.0,354.9,-9999.0,'1111122,1111122,1111122' 
SCCF RECON,ioos:station:SCCF:16:1,2019-03-06T13:15:00Z,26.4345,-81.9647,10.0,7.7,7.8,-9999.0,'1111122,1111122,1111122' 
SCCF RECON,ioos:station:SCCF:16:1,2019-03-06T14:15:00Z,26.4345,-81.9647,10.0,9.2,354.9,-9999.0,'1111122,1111122,1111122' 
SCCF RECON,ioos:station:SCCF:16:1,2019-03-06T15:15:00Z,26.4345,-81.9647,10.0,8.3,0.1,-9999.0,'1111122,1111122,1111122' 
SCCF RECON,ioos:station:SCCF:16:1,2019-03-06T16:15:00Z,26.4345,-81.9647,10.0,4.9,13.2,-9999.0,'1111122,1111122,1111122' 
SCCF RECON,ioos:station:SCCF:16:1,2019-03-06T17:15:00Z,26.4345,-81.9647,10.0,5.0,2.5,-9999.0,'1111122,1111122,1111122' 
SCCF RECON,ioos:station:SCCF:16:1,2019-03-06T18:15:00Z,26.4345,-81.9647,10.0,4.0,337.8,-9999.0,'1111122,1111122,1111122' 
SCCF RECON,ioos:station:SCCF:16:1,2019-03-06T19:15:00Z,26.4345,-81.9647,10.0,7.2,20.4,-9999.0,'1111122,1111122,1111122' 
SCCF RECON,ioos:station:SCCF:16:1,2019-03-06T20:15:00Z,26.4345,-81.9647,10.0,3.6,53.9,-9999.0,'1111122,1111122,1111122' 
SCCF RECON,ioos:station:SCCF:16:1,2019-03-06T21:15:00Z,26.4345,-81.9647,10.0,4.8,27.2,-9999.0,'1111122,1111122,1111122' 
SCCF RECON,ioos:station:SCCF:16:1,2019-03-06T22:15:00Z,26.4345,-81.9647,10.0,4.6,13.4,-9999.0,'1111122,1111122,1111122' 
SCCF RECON,ioos:station:SCCF:16:1,2019-03-07T05:15:00Z,26.4345,-81.9647,10.0,7.4,52.5,-9999.0,'1111122,1111122,1111122' 
SCCF RECON,ioos:station:SCCF:16:1,2019-03-07T06:15:00Z,26.4345,-81.9647,10.0,7.2,43.3,-9999.0,'1111122,1111122,1111122' 
SCCF RECON,ioos:station:SCCF:16:1,2019-03-07T07:15:00Z,26.4345,-81.9647,10.0,5.8,29.4,-9999.0,'1111122,1111122,1111122' 
SCCF RECON,ioos:station:SCCF:16:1,2019-03-07T08:15:00Z,26.4345,-81.9647,10.0,6.3,32.5,-9999.0,'1111122,1111122,1111122' 
SCCF RECON,ioos:station:SCCF:16:1,2019-03-07T09:15:00Z,26.4345,-81.9647,10.0,5.2,36.9,-9999.0,'1111122,1111122,1111122' 
SCCF RECON,ioos:station:SCCF:16:1,2019-03-07T10:15:00Z,26.4345,-81.9647,10.0,6.1,49.7,-9999.0,'1111122,1111122,1111122' 
SCCF RECON,ioos:station:SCCF:16:1,2019-03-07T11:15:00Z,26.4345,-81.9647,10.0,6.4,30.8,-9999.0,'1111122,1111122,1111122' 
SCCF RECON,ioos:station:SCCF:16:1,2019-03-07T12:15:00Z,26.4345,-81.9647,10.0,6.5,36.0,-9999.0,'1111122,1111122,1111122' 
SCCF RECON,ioos:station:SCCF:16:1,2019-03-07T13:15:00Z,26.4345,-81.9647,10.0,7.6,31.8,-9999.0,'1111122,1111122,1111122' 
SCCF RECON,ioos:station:SCCF:16:1,2019-03-07T14:15:00Z,26.4345,-81.9647,10.0,7.0,35.5,-9999.0,'1111122,1111122,1111122' 
SCCF RECON,ioos:station:SCCF:16:1,2019-03-07T15:15:00Z,26.4345,-81.9647,10.0,6.1,52.8,-9999.0,'1111122,1111122,1111122' 
SCCF RECON,ioos:station:SCCF:16:1,2019-03-07T16:15:00Z,26.4345,-81.9647,10.0,6.5,53.7,-9999.0,'1111122,1111122,1111122' 
SCCF RECON,ioos:station:SCCF:16:1,2019-03-07T17:15:00Z,26.4345,-81.9647,10.0,4.0,102.5,-9999.0,'1111122,1111122,1111122' 
SCCF RECON,ioos:station:SCCF:16:1,2019-03-07T18:15:00Z,26.4345,-81.9647,10.0,3.4,137.6,-9999.0,'1111122,1111122,1111122' 
SCCF RECON,ioos:station:SCCF:16:1,2019-03-07T19:15:00Z,26.4345,-81.9647,10.0,3.3,76.8,-9999.0,'1111122,1111122,1111122' 
SCCF RECON,ioos:station:SCCF:16:1,2019-03-07T20:15:00Z,26.4345,-81.9647,10.0,2.3,120.9,-9999.0,'1111122,1111122,1111122' 
SCCF RECON,ioos:station:SCCF:16:1,2019-03-07T21:15:00Z,26.4345,-81.9647,10.0,3.7,90.0,-9999.0,'1111122,1111122,1111122' 
SCCF RECON,ioos:station:SCCF:16:1,2019-03-07T22:15:00Z,26.4345,-81.9647,10.0,4.5,89.1,-9999.0,'1111122,1111122,1111122' 
SCCF RECON,ioos:station:SCCF:16:1,2019-03-08T05:15:00Z,26.4345,-81.9647,10.0,5.2,77.9,-9999.0,'1111122,1111122,1111122' 
SCCF RECON,ioos:station:SCCF:16:1,2019-03-08T06:15:00Z,26.4345,-81.9647,10.0,6.4,89.2,-9999.0,'1111122,1111122,1111122' 
SCCF RECON,ioos:station:SCCF:16:1,2019-03-08T07:15:00Z,26.4345,-81.9647,10.0,5.5,69.9,-9999.0,'1111122,1111122,1111122' 
SCCF RECON,ioos:station:SCCF:16:1,2019-03-08T08:15:00Z,26.4345,-81.9647,10.0,3.7,56.2,-9999.0,'1111122,1111122,1111122' 
SCCF RECON,ioos:station:SCCF:16:1,2019-03-08T09:15:00Z,26.4345,-81.9647,10.0,3.9,56.9,-9999.0,'1111122,1111122,1111122' 
SCCF RECON,ioos:station:SCCF:16:1,2019-03-08T10:15:00Z,26.4345,-81.9647,10.0,5.3,52.6,-9999.0,'1111122,1111122,1111122' 
SCCF RECON,ioos:station:SCCF:16:1,2019-03-08T11:15:00Z,26.4345,-81.9647,10.0,5.3,81.3,-9999.0,'1111122,1111122,1111122' 
SCCF RECON,ioos:station:SCCF:16:1,2019-03-08T12:15:00Z,26.4345,-81.9647,10.0,4.6,74.8,-9999.0,'1111122,1111122,1111122' 
SCCF RECON,ioos:station:SCCF:16:1,2019-03-08T13:15:00Z,26.4345,-81.9647,10.0,4.4,57.4,-9999.0,'1111122,1111122,1111122' 
SCCF RECON,ioos:station:SCCF:16:1,2019-03-08T16:15:00Z,26.4345,-81.9647,10.0,2.8,82.0,-9999.0,'1111122,1111122,1111122' 
SCCF RECON,ioos:station:SCCF:16:1,2019-03-08T17:15:00Z,26.4345,-81.9647,10.0,0.5,97.1,-9999.0,'1111122,1111122,1111122' 
SCCF RECON,ioos:station:SCCF:16:1,2019-03-08T18:15:00Z,26.4345,-81.9647,10.0,1.3,227.2,-9999.0,'1111122,1111122,1111122' 
SCCF RECON,ioos:station:SCCF:16:1,2019-03-08T19:15:00Z,26.4345,-81.9647,10.0,1.6,205.6,-9999.0,'1111122,1111122,1111122' 
SCCF RECON,ioos:station:SCCF:16:1,2019-03-08T20:15:00Z,26.4345,-81.9647,10.0,1.1,206.9,-9999.0,'1111122,1111122,1111122' 
SCCF RECON,ioos:station:SCCF:16:1,2019-03-08T21:15:00Z,26.4345,-81.9647,10.0,5.1,306.7,-9999.0,'1111122,1111122,1111122' 
SCCF RECON,ioos:station:SCCF:16:1,2019-03-08T22:15:00Z,26.4345,-81.9647,10.0,4.0,257.3,-9999.0,'1111122,1111122,1111122' 
SCCF RECON,ioos:station:SCCF:16:1,2019-03-09T05:15:00Z,26.4345,-81.9647,10.0,4.2,106.5,-9999.0,'1111122,1111122,1111122' 
SCCF RECON,ioos:station:SCCF:16:1,2019-03-09T06:15:00Z,26.4345,-81.9647,10.0,3.3,105.3,-9999.0,'1111122,1111122,1111122' 
SCCF RECON,ioos:station:SCCF:16:1,2019-03-09T07:15:00Z,26.4345,-81.9647,10.0,3.1,101.0,-9999.0,'1111122,1111122,1111122' 
SCCF RECON,ioos:station:SCCF:16:1,2019-03-09T08:15:00Z,26.4345,-81.9647,10.0,3.8,81.5,-9999.0,'1111122,1111122,1111122' 
SCCF RECON,ioos:station:SCCF:16:1,2019-03-09T09:15:00Z,26.4345,-81.9647,10.0,3.3,90.8,-9999.0,'1111122,1111122,1111122' 
SCCF RECON,ioos:station:SCCF:16:1,2019-03-09T10:15:00Z,26.4345,-81.9647,10.0,3.3,61.5,-9999.0,'1111122,1111122,1111122' 
SCCF RECON,ioos:station:SCCF:16:1,2019-03-09T11:15:00Z,26.4345,-81.9647,10.0,3.6,55.7,-9999.0,'1111122,1111122,1111122' 
SCCF RECON,ioos:station:SCCF:16:1,2019-03-09T12:15:00Z,26.4345,-81.9647,10.0,3.8,68.3,-9999.0,'1111122,1111122,1111122' 
SCCF RECON,ioos:station:SCCF:16:1,2019-03-09T13:15:00Z,26.4345,-81.9647,10.0,4.3,69.6,-9999.0,'1111122,1111122,1111122' 
SCCF RECON,ioos:station:SCCF:16:1,2019-03-09T14:15:00Z,26.4345,-81.9647,10.0,4.4,88.6,-9999.0,'1111122,1111122,1111122' 
SCCF RECON,ioos:station:SCCF:16:1,2019-03-09T15:15:00Z,26.4345,-81.9647,10.0,3.3,121.6,-9999.0,'1111122,1111122,1111122' 
SCCF RECON,ioos:station:SCCF:16:1,2019-03-09T16:15:00Z,26.4345,-81.9647,10.0,1.5,167.8,-9999.0,'1111122,1111122,1111122' 
SCCF RECON,ioos:station:SCCF:16:1,2019-03-09T17:15:00Z,26.4345,-81.9647,10.0,1.9,242.6,-9999.0,'1111122,1111122,1111122' 
SCCF RECON,ioos:station:SCCF:16:1,2019-03-09T18:15:00Z,26.4345,-81.9647,10.0,2.7,201.0,-9999.0,'1111122,1111122,1111122' 
SCCF RECON,ioos:station:SCCF:16:1,2019-03-09T19:15:00Z,26.4345,-81.9647,10.0,4.5,220.4,-9999.0,'1111122,1111122,1111122' 
SCCF RECON,ioos:station:SCCF:16:1,2019-03-09T20:15:00Z,26.4345,-81.9647,10.0,3.6,197.6,-9999.0,'1111122,1111122,1111122' 
SCCF RECON,ioos:station:SCCF:16:1,2019-03-09T21:15:00Z,26.4345,-81.9647,10.0,4.0,203.3,-9999.0,'1111122,1111122,1111122' 
SCCF RECON,ioos:station:SCCF:16:1,2019-03-09T22:15:00Z,26.4345,-81.9647,10.0,2.9,214.7,-9999.0,'1111122,1111122,1111122' 
SCCF RECON,ioos:station:SCCF:16:1,2019-03-10T05:15:00Z,26.4345,-81.9647,10.0,2.6,50.8,-9999.0,'1111122,1111122,1111122' 
SCCF RECON,ioos:station:SCCF:16:1,2019-03-10T06:15:00Z,26.4345,-81.9647,10.0,2.5,98.1,-9999.0,'1111122,1111122,1111122' 
SCCF RECON,ioos:station:SCCF:16:1,2019-03-10T07:15:00Z,26.4345,-81.9647,10.0,4.6,124.1,-9999.0,'1111122,1111122,1111122' 
SCCF RECON,ioos:station:SCCF:16:1,2019-03-10T08:15:00Z,26.4345,-81.9647,10.0,5.2,146.0,-9999.0,'1111122,1111122,1111122' 
SCCF RECON,ioos:station:SCCF:16:1,2019-03-10T09:15:00Z,26.4345,-81.9647,10.0,4.6,135.6,-9999.0,'1111122,1111122,1111122' 
SCCF RECON,ioos:station:SCCF:16:1,2019-03-10T10:15:00Z,26.4345,-81.9647,10.0,5.5,145.3,-9999.0,'1111122,1111122,1111122' 
SCCF RECON,ioos:station:SCCF:16:1,2019-03-10T11:15:00Z,26.4345,-81.9647,10.0,4.6,133.9,-9999.0,'1111122,1111122,1111122' 
SCCF RECON,ioos:station:SCCF:16:1,2019-03-10T12:15:00Z,26.4345,-81.9647,10.0,2.6,94.4,-9999.0,'1111122,1111122,1111122' 
SCCF RECON,ioos:station:SCCF:16:1,2019-03-10T13:15:00Z,26.4345,-81.9647,10.0,2.7,92.4,-9999.0,'1111122,1111122,1111122' 
SCCF RECON,ioos:station:SCCF:16:1,2019-03-10T14:15:00Z,26.4345,-81.9647,10.0,4.0,98.5,-9999.0,'1111122,1111122,1111122' 
SCCF RECON,ioos:station:SCCF:16:1,2019-03-10T15:15:00Z,26.4345,-81.9647,10.0,3.8,130.5,-9999.0,'1111122,1111122,1111122' 
SCCF RECON,ioos:station:SCCF:16:1,2019-03-10T16:15:00Z,26.4345,-81.9647,10.0,2.0,152.5,-9999.0,'1111122,1111122,1111122' 
SCCF RECON,ioos:station:SCCF:16:1,2019-03-10T17:15:00Z,26.4345,-81.9647,10.0,4.0,181.4,-9999.0,'1111122,1111122,1111122' 
SCCF RECON,ioos:station:SCCF:16:1,2019-03-10T18:15:00Z,26.4345,-81.9647,10.0,4.6,201.3,-9999.0,'1111122,1111122,1111122' 
SCCF RECON,ioos:station:SCCF:16:1,2019-03-10T19:15:00Z,26.4345,-81.9647,10.0,4.1,206.1,-9999.0,'1111122,1111122,1111122' 
SCCF RECON,ioos:station:SCCF:16:1,2019-03-10T20:15:00Z,26.4345,-81.9647,10.0,4.1,211.8,-9999.0,'1111122,1111122,1111122' 
SCCF RECON,ioos:station:SCCF:16:1,2019-03-10T21:15:00Z,26.4345,-81.9647,10.0,3.5,245.2,-9999.0,'1111122,1111122,1111122' 
SCCF RECON,ioos:station:SCCF:16:1,2019-03-11T04:15:00Z,26.4345,-81.9647,10.0,0.5,127.7,-9999.0,'1111122,1111122,1111122' 
SCCF RECON,ioos:station:SCCF:16:1,2019-03-11T05:15:00Z,26.4345,-81.9647,10.0,0.3,117.2,-9999.0,'1111122,1111122,1111122' 
SCCF RECON,ioos:station:SCCF:16:1,2019-03-11T07:15:00Z,26.4345,-81.9647,10.0,1.1,85.2,-9999.0,'1111122,1111122,1111122' 
SCCF RECON,ioos:station:SCCF:16:1,2019-03-11T08:15:00Z,26.4345,-81.9647,10.0,2.0,97.4,-9999.0,'1111122,1111122,1111122' 
SCCF RECON,ioos:station:SCCF:16:1,2019-03-11T09:15:00Z,26.4345,-81.9647,10.0,2.0,62.5,-9999.0,'1111122,1111122,1111122' 
SCCF RECON,ioos:station:SCCF:16:1,2019-03-11T10:15:00Z,26.4345,-81.9647,10.0,1.9,70.9,-9999.0,'1111122,1111122,1111122' 
SCCF RECON,ioos:station:SCCF:16:1,2019-03-11T11:15:00Z,26.4345,-81.9647,10.0,1.4,85.2,-9999.0,'1111122,1111122,1111122' 
SCCF RECON,ioos:station:SCCF:16:1,2019-03-11T12:15:00Z,26.4345,-81.9647,10.0,2.5,40.5,-9999.0,'1111122,1111122,1111122' 
SCCF RECON,ioos:station:SCCF:16:1,2019-03-11T13:15:00Z,26.4345,-81.9647,10.0,2.7,75.9,-9999.0,'1111122,1111122,1111122' 
SCCF RECON,ioos:station:SCCF:16:1,2019-03-11T14:15:00Z,26.4345,-81.9647,10.0,2.0,98.6,-9999.0,'1111122,1111122,1111122' 
SCCF RECON,ioos:station:SCCF:16:1,2019-03-11T15:15:00Z,26.4345,-81.9647,10.0,1.1,138.6,-9999.0,'1111122,1111122,1111122' 
SCCF RECON,ioos:station:SCCF:16:1,2019-03-11T16:15:00Z,26.4345,-81.9647,10.0,1.5,217.2,-9999.0,'1111122,1111122,1111122' 
SCCF RECON,ioos:station:SCCF:16:1,2019-03-11T17:15:00Z,26.4345,-81.9647,10.0,0.6,190.0,-9999.0,'1111122,1111122,1111122' 
SCCF RECON,ioos:station:SCCF:16:1,2019-03-11T18:15:00Z,26.4345,-81.9647,10.0,3.4,237.3,-9999.0,'1111122,1111122,1111122' 
SCCF RECON,ioos:station:SCCF:16:1,2019-03-11T19:15:00Z,26.4345,-81.9647,10.0,5.1,242.5,-9999.0,'1111122,1111122,1111122' 
SCCF RECON,ioos:station:SCCF:16:1,2019-03-11T20:15:00Z,26.4345,-81.9647,10.0,5.0,238.6,-9999.0,'1111122,1111122,1111122' 
SCCF RECON,ioos:station:SCCF:16:1,2019-03-11T21:15:00Z,26.4345,-81.9647,10.0,4.5,267.3,-9999.0,'1111122,1111122,1111122' 
SCCF RECON,ioos:station:SCCF:16:1,2019-03-11T22:15:00Z,26.4345,-81.9647,10.0,3.9,250.4,-9999.0,'1111122,1111122,1111122' 
SCCF RECON,ioos:station:SCCF:16:1,2019-03-12T04:15:00Z,26.4345,-81.9647,10.0,1.5,59.0,-9999.0,'1111122,1111122,1111122' 
SCCF RECON,ioos:station:SCCF:16:1,2019-03-12T05:15:00Z,26.4345,-81.9647,10.0,1.6,332.4,-9999.0,'1111122,1111122,1111122' 
SCCF RECON,ioos:station:SCCF:16:1,2019-03-12T06:15:00Z,26.4345,-81.9647,10.0,3.8,339.7,-9999.0,'1111122,1111122,1111122' 
SCCF RECON,ioos:station:SCCF:16:1,2019-03-12T07:15:00Z,26.4345,-81.9647,10.0,3.1,23.3,-9999.0,'1111122,1111122,1111122' 
SCCF RECON,ioos:station:SCCF:16:1,2019-03-12T08:15:00Z,26.4345,-81.9647,10.0,1.0,57.7,-9999.0,'1111122,1111122,1111122' 
SCCF RECON,ioos:station:SCCF:16:1,2019-03-12T09:15:00Z,26.4345,-81.9647,10.0,2.9,8.1,-9999.0,'1111122,1111122,1111122' 
SCCF RECON,ioos:station:SCCF:16:1,2019-03-12T10:15:00Z,26.4345,-81.9647,10.0,3.4,337.4,-9999.0,'1111122,1111122,1111122' 
SCCF RECON,ioos:station:SCCF:16:1,2019-03-12T11:15:00Z,26.4345,-81.9647,10.0,3.0,335.6,-9999.0,'1111122,1111122,1111122' 
SCCF RECON,ioos:station:SCCF:16:1,2019-03-12T12:15:00Z,26.4345,-81.9647,10.0,4.6,327.6,-9999.0,'1111122,1111122,1111122' 
SCCF RECON,ioos:station:SCCF:16:1,2019-03-12T13:15:00Z,26.4345,-81.9647,10.0,4.1,339.7,-9999.0,'1111122,1111122,1111122' 
SCCF RECON,ioos:station:SCCF:16:1,2019-03-12T14:15:00Z,26.4345,-81.9647,10.0,2.5,3.9,-9999.0,'1111122,1111122,1111122' 
SCCF RECON,ioos:station:SCCF:16:1,2019-03-12T15:15:00Z,26.4345,-81.9647,10.0,3.2,0.6,-9999.0,'1111122,1111122,1111122' 
SCCF RECON,ioos:station:SCCF:16:1,2019-03-12T16:15:00Z,26.4345,-81.9647,10.0,5.2,12.9,-9999.0,'1111122,1111122,1111122' 
SCCF RECON,ioos:station:SCCF:16:1,2019-03-12T17:15:00Z,26.4345,-81.9647,10.0,0.9,7.9,-9999.0,'1111122,1111122,1111122' 
SCCF RECON,ioos:station:SCCF:16:1,2019-03-12T18:15:00Z,26.4345,-81.9647,10.0,4.4,202.7,-9999.0,'1111122,1111122,1111122' 
SCCF RECON,ioos:station:SCCF:16:1,2019-03-12T19:15:00Z,26.4345,-81.9647,10.0,5.7,235.2,-9999.0,'1111122,1111122,1111122' 